SCP
1 1 0 0 0 0 0 0 0 0 0 0 0 0 0 0 0 0 0 0 0 0 0 0 0 0 0 0 0 0 0 0 0 1 0 0 0 0
1 1 0 0 0 0 0 0 0 0 0 0 0 0 0 0 0 0 0 0 0 0 0 0 0 0 0 0 0 0 0 0 0 0 1 0 0 0
1 1 0 0 0 0 0 0 0 0 0 0 0 0 0 0 0 0 0 0 0 0 0 0 0 0 0 0 0 0 0 0 0 0 0 1 0 0
1 0 0 0 0 0 0 0 0 0 0 0 0 0 0 0 0 0 0 0 0 0 0 0 0 0 0 0 0 0 0 0 0 0 0 0 0 0
0 0 0 0 0 0 0 0 0 0 0 0 0 0 0 0 0 0 0 0 0 0 0 0 0 0 0 0 0 0 0 0 0 0 0 0 0 0
0 0 0 0 0 0 0 0 0 0 0 0 0 0 0 0 0 0 0 0 0 0 0 0 0 0 0 0 0 0 0 0 0 0 0 0 0 0
0 0 0 0 0 0 0 0 0 0 0 0 0 0 0 0 0 0 0 0 0 0 0 0 0 0 0 0 0 0 0 0 0 0 0 0 0 0
0 0 0 0 0 0 0 0 0 0 0 0 0 0 0 0 0 0 0 0 0 0 0 0 0 0 0 0 0 0 0 0 0 0 0 0 0 0
0 0 0 0 0 0 0 0 0 0 0 0 0 0 0 0 0 0 0 0 0 0 0 0 0 0 0 0 0 0 0 0 0 0 0 0 0 0
0 0 0 0 0 0 0 0 0 0 0 0 0 0 0 0 0 0 0 0 0 0 0 0 0 0 0 0 0 0 0 0 0 0 0 0 0 0
0 0 0 0 0 0 0 0 0 0 0 0 0 0 0 0 0 0 0 0 0 0 0 0 0 0 0 0 0 0 0 0 0 0 0 0 0 0
0 0 0 0 0 0 0 0 0 0 0 0 0 0 0 0 0 0 0 0 0 0 0 0 0 0 0 0 0 0 0 0 0 0 0 0 0 0
0 0 0 0 0 0 0 0 0 0 0 0 0 0 0 0 0 0 0 0 0 0 0 0 0 0 0 0 0 0 0 0 0 0 0 0 0 0
0 0 0 0 0 0 0 0 0 0 0 0 0 0 0 0 0 0 0 0 0 0 0 0 0 0 0 0 0 0 0 0 0 0 0 0 0 0
0 0 0 0 0 0 0 0 0 0 0 0 0 0 0 0 0 0 0 0 0 0 0 0 0 0 0 0 0 0 0 0 0 0 0 0 0 0
0 0 0 0 0 0 0 0 0 0 0 0 0 0 0 0 0 0 0 0 0 0 0 0 0 0 0 0 0 0 0 0 0 0 0 0 0 0
0 0 0 0 0 0 0 0 0 0 0 0 0 0 0 0 0 0 0 0 0 0 0 0 0 0 0 0 0 0 0 0 0 0 0 0 0 0
0 0 0 0 0 0 0 0 0 0 0 0 0 0 0 0 0 0 0 0 0 0 0 0 0 0 0 0 0 0 0 0 0 0 0 0 0 0
0 0 0 0 0 0 0 0 0 0 0 0 0 0 0 0 0 0 0 0 0 0 0 0 0 0 0 0 0 0 0 0 0 0 0 0 0 0
0 0 0 0 0 0 0 0 0 0 0 0 0 0 0 0 0 0 0 0 0 0 0 0 0 0 0 0 0 0 0 0 0 0 0 0 0 0
0 0 0 0 0 0 0 0 0 0 0 0 0 0 0 0 0 0 0 0 0 0 0 0 0 0 0 0 0 0 0 0 0 0 0 0 0 0
0 0 0 0 0 0 0 0 0 0 0 0 0 0 0 0 0 0 0 0 0 0 0 0 0 0 0 0 0 0 0 0 0 0 0 0 0 0
0 0 0 0 0 0 0 0 0 0 0 0 0 0 0 0 0 0 0 0 0 0 0 0 0 0 0 0 0 0 0 0 0 0 0 0 0 0
Wind_Speed
2 3 2 2 2 1 1 2 3 3 4 3 1 1 1 1 3 3 3 7 9 10 11 12 12 13 13 13 14 14 15 16 16 16 16 16 17 18
2 2 2 2 2 2 2 2 2 3 3 2 1 2 2 2 4 3 3 8 8 10 11 11 12 12 13 13 13 14 14 15 15 16 17 17 17 18
2 2 3 2 2 2 2 2 2 2 3 3 1 2 2 3 3 3 3 4 4 9 11 11 12 12 13 13 13 13 14 14 15 16 17 17 18 18
3 3 3 2 2 2 1 2 1 2 2 3 2 2 3 3 3 3 4 4 4 8 11 12 12 12 13 13 13 13 13 14 14 16 16 17 17 18
4 4 3 3 3 2 1 1 1 1 1 2 3 2 2 2 3 3 4 4 5 6 9 10 12 12 13 13 13 13 13 14 14 15 15 16 16 17
3 3 4 4 3 3 2 2 1 1 1 1 2 2 2 2 2 3 4 3 4 5 6 8 10 12 13 13 13 13 13 13 14 15 15 15 16 16
2 3 3 4 4 3 2 2 2 1 1 1 2 2 2 2 2 2 4 4 5 3 4 4 5 5 6 10 11 12 12 13 14 15 15 15 15 15
3 3 3 3 4 4 3 3 3 3 3 2 2 3 3 3 2 3 3 4 5 3 4 6 4 5 5 5 10 13 13 14 14 15 15 15 15 14
3 3 2 2 3 2 2 2 2 3 3 3 3 3 3 3 2 3 3 4 5 5 5 6 4 5 5 7 13 14 14 14 14 15 15 15 15 14
3 4 4 3 3 3 3 2 1 1 2 2 2 2 2 2 2 3 4 5 5 4 3 5 5 5 6 6 11 13 14 14 14 15 15 15 15 14
3 4 4 4 5 5 3 2 1 1 1 1 2 2 3 4 3 2 2 3 5 4 2 3 4 6 6 5 7 11 13 14 15 15 15 15 15 13
3 4 5 5 6 6 4 3 3 2 1 1 1 1 2 2 3 1 1 3 3 4 2 2 4 5 6 4 4 5 7 11 15 15 15 15 15 8
3 3 3 7 6 6 4 3 4 2 1 1 1 1 1 1 1 1 1 2 3 4 3 3 4 4 5 7 6 5 5 6 7 8 11 14 14 10
3 3 3 6 6 5 4 4 4 2 1 1 1 1 1 2 2 2 3 3 4 5 5 4 4 4 5 7 7 5 5 5 6 6 6 10 11 12
3 5 6 6 5 3 4 4 2 1 1 1 1 2 2 2 2 2 3 3 4 5 4 4 5 5 5 6 7 6 7 6 5 5 6 6 5 5
4 5 6 5 4 4 3 2 1 2 2 2 1 1 1 2 2 2 2 3 3 4 3 4 5 5 6 7 7 8 6 6 6 6 6 6 5 4
4 3 3 3 3 2 2 2 1 1 1 1 1 1 2 2 2 2 2 2 3 4 5 4 4 5 6 6 6 6 6 6 6 6 6 6 5 4
6 4 4 4 4 3 3 2 2 2 2 1 1 1 2 2 3 2 2 3 4 4 5 4 4 4 4 4 6 6 5 5 6 6 5 5 6 5
5 4 4 4 4 3 3 3 2 2 2 2 2 1 2 2 3 3 3 3 4 4 4 4 4 4 5 6 5 3 4 5 6 5 4 4 6 6
4 4 4 4 4 4 3 3 2 2 2 2 2 2 2 2 3 3 3 4 4 4 4 4 3 3 4 5 5 5 5 5 5 6 5 5 5 7
5 4 4 4 4 4 3 3 3 3 3 3 2 2 2 2 3 3 3 5 5 4 5 5 5 6 4 3 4 5 4 5 5 5 5 5 5 4
5 5 4 4 4 4 4 4 3 3 3 3 2 2 2 2 3 3 3 4 3 4 5 5 4 3 2 3 5 6 6 6 6 7 6 4 3 3
5 5 4 5 4 4 4 5 5 4 3 3 3 2 2 2 3 3 3 3 3 4 4 4 3 2 3 3 4 5 6 7 5 5 5 6 6 6
Wind_Direction
215 212 214 216 211 210 200 197 198 236 251 246 242 243 283 283 288 283 274 283 292 295 295 297 299 300 301 302 300 299 297 296 295 293 291 288 285 283
203 201 216 210 205 204 204 219 210 214 245 244 248 292 294 297 295 296 288 298 295 296 298 297 298 299 301 301 301 302 300 298 296 296 295 291 288 285
199 201 216 204 204 206 201 211 221 216 244 269 277 299 292 288 300 294 292 291 294 299 301 301 301 299 300 302 303 304 302 301 299 298 297 297 293 289
200 199 210 204 201 202 198 207 219 228 233 261 278 279 279 274 283 292 297 296 292 298 303 304 303 301 300 301 302 302 300 300 300 299 299 297 297 295
197 195 198 192 197 193 184 197 221 250 242 246 269 280 286 288 299 294 287 288 294 297 301 304 304 304 302 303 304 303 301 299 300 301 301 300 298 296
195 192 192 189 190 183 186 200 204 221 239 246 268 288 292 297 294 299 303 302 300 301 301 303 304 308 306 305 306 304 303 303 303 303 303 301 299 297
191 188 184 182 183 184 188 192 192 202 230 252 271 292 289 301 299 303 303 309 300 292 303 305 305 301 304 305 304 305 307 307 307 307 306 303 302 300
194 191 182 185 189 200 204 205 203 202 214 231 256 264 278 290 304 308 309 314 305 315 316 301 296 295 297 294 306 311 310 310 311 311 309 308 306 303
191 182 183 180 177 172 182 206 237 245 238 228 236 253 269 279 290 295 296 293 285 299 311 294 296 293 294 299 307 309 311 313 314 314 312 310 308 305
196 190 182 183 183 173 167 174 205 243 255 246 236 262 286 295 278 279 284 292 289 292 297 287 297 293 298 295 298 304 312 315 315 316 315 312 309 306
200 191 186 185 189 183 168 178 205 244 277 239 247 263 292 312 315 315 311 308 301 299 300 285 298 305 296 287 297 309 315 317 318 318 319 319 316 311
196 191 197 196 190 189 185 186 205 221 212 298 281 295 306 316 325 315 285 289 294 296 310 312 304 320 309 295 305 315 315 317 320 319 319 320 319 312
195 193 192 194 195 199 201 198 209 205 195 214 244 287 326 328 328 316 287 269 275 276 300 318 301 302 287 296 301 303 310 311 314 313 315 318 319 317
199 193 182 181 190 202 205 205 207 210 178 188 246 275 286 292 292 286 279 269 257 264 280 282 277 288 293 293 296 305 307 307 309 308 309 314 314 313
197 192 182 182 187 193 203 206 200 184 178 209 247 269 270 269 280 290 290 283 278 272 272 268 268 277 277 283 291 298 307 307 306 309 313 314 311 312
199 188 184 186 188 183 186 195 185 186 197 219 241 267 283 285 285 289 297 302 297 295 280 269 268 273 278 278 281 291 298 301 312 313 310 308 310 309
166 162 169 171 178 181 181 183 177 181 204 210 222 259 279 286 290 295 294 296 293 301 307 300 283 270 262 270 279 284 293 294 297 308 310 309 310 311
172 175 186 186 188 189 189 191 193 198 198 199 222 247 277 288 295 298 296 289 291 296 299 303 311 308 295 274 253 276 290 295 302 306 305 304 309 315
186 187 193 192 190 189 188 190 198 196 191 200 215 234 259 274 284 290 291 292 292 295 295 299 304 306 309 308 294 264 290 302 305 308 309 302 299 306
194 194 196 192 189 190 190 190 190 186 193 205 211 223 241 259 272 279 284 289 295 299 299 297 293 290 287 288 292 295 287 291 300 304 307 301 291 293
195 196 193 190 189 188 187 187 189 197 203 206 209 215 233 250 266 275 282 290 297 298 299 298 287 292 284 285 290 296 298 290 287 291 302 306 310 314
194 194 193 190 187 187 185 185 192 200 204 209 212 215 227 244 260 269 277 285 291 295 297 298 302 308 302 294 296 302 309 313 305 301 298 286 286 297
196 192 189 187 187 184 183 188 194 200 202 204 206 216 228 244 257 263 273 280 290 300 309 310 312 312 303 293 295 301 309 317 320 327 323 323 310 292